Vorticity
6 6 7 7 5 7 7 6 7 5 10 10 7 16 13 1 0 1 -2 1 -0 1 9 4 5 6 1 2 -0 -1 1 2 3 1 0 3 7 7 4 2 4 6 6 6 5 5 5 5 5 3 2 4 6 9 10 9 10 10 7 5 6 6 7 8 7 7 7 8 8 7 8 10 9 11 10 3 4 4 4 6 6 7 5 5 9 7 10 10 8 5 3 4 4 5 7 9 12
6 6 6 6 6 8 6 5 8 7 12 11 12 12 3 -0 -0 -3 -4 3 4 7 12 4 5 5 5 9 4 3 6 6 4 1 2 4 6 5 4 3 4 5 5 7 5 5 5 5 4 2 3 6 8 9 8 8 8 5 2 3 6 6 7 7 5 3 2 3 6 6 6 8 9 16 14 3 3 4 5 7 7 7 6 6 8 7 9 11 9 5 3 3 4 6 6 9 12
6 6 6 6 7 8 7 8 9 8 12 11 9 2 1 6 2 2 2 1 3 6 7 2 3 1 5 8 4 3 0 5 7 3 2 2 5 5 5 5 5 5 4 5 5 5 5 3 1 2 5 7 8 7 7 7 5 3 2 3 4 5 6 8 6 4 3 0 2 5 6 5 6 19 18 5 3 3 4 7 7 6 6 6 8 8 8 11 10 6 4 3 5 6 6 9 12
7 7 7 7 6 7 7 8 8 11 15 11 7 6 11 11 6 8 5 2 3 3 1 2 2 -2 4 4 2 1 -7 1 5 3 4 3 5 4 3 4 5 4 4 5 5 5 4 2 2 3 6 8 7 6 4 4 5 5 4 3 3 5 4 6 7 6 2 -0 9 12 10 6 5 17 19 10 7 2 3 6 6 6 5 7 9 8 7 10 10 6 4 3 5 6 7 9 12
8 9 9 8 7 8 7 6 8 12 16 14 8 8 14 11 7 5 -0 4 7 2 -2 -1 1 -1 6 5 6 10 2 2 4 5 7 4 4 4 3 3 4 4 5 6 6 6 4 3 3 5 6 7 6 5 3 3 5 4 4 4 4 4 3 4 6 6 -0 -1 14 15 6 5 4 11 19 16 13 5 2 5 5 6 6 6 9 8 7 9 10 6 3 3 4 6 7 9 12
8 8 8 8 9 8 7 8 10 12 11 13 10 5 10 8 2 -2 -3 1 2 0 -2 -1 3 2 4 4 6 10 3 1 7 9 8 6 6 5 5 5 4 4 5 7 7 5 3 3 5 7 6 5 4 4 4 4 3 4 6 6 6 6 7 7 8 8 5 1 6 7 1 3 1 6 19 17 16 9 -1 4 5 5 6 6 9 9 8 10 10 6 3 4 3 5 7 9 12
7 7 8 8 10 9 10 10 11 14 9 10 9 5 11 8 -2 -5 -0 3 1 0 -1 1 5 7 7 7 9 9 7 7 9 10 8 6 7 8 6 6 6 5 7 7 5 4 3 4 6 7 6 4 4 4 4 5 6 7 8 9 10 10 10 12 14 14 13 7 2 4 2 4 3 7 22 17 16 13 -0 3 5 4 6 6 9 9 9 10 9 7 4 3 3 5 7 8 10
7 8 7 7 7 6 10 10 11 12 8 13 6 4 13 8 3 4 5 2 1 1 -1 2 6 7 8 10 11 11 12 11 8 7 6 6 8 10 8 8 8 8 8 7 6 5 4 5 6 6 5 4 3 3 3 6 9 10 10 10 8 6 8 10 12 16 20 17 11 9 6 8 9 9 20 19 15 13 2 3 4 4 7 7 9 9 10 10 9 7 4 2 3 4 6 8 10
7 7 5 5 6 5 9 9 13 12 10 20 9 3 10 5 6 10 8 0 -1 2 0 4 7 5 4 4 7 9 9 8 8 5 4 7 9 9 9 9 9 9 8 7 6 5 5 4 5 5 4 5 4 5 6 8 10 11 9 5 3 2 5 5 4 10 17 20 17 14 11 11 11 10 19 22 15 11 5 3 4 5 7 8 8 9 9 9 9 7 4 3 3 4 5 7 9
7 6 6 6 7 7 12 11 13 14 11 17 12 5 5 1 4 3 2 1 1 3 2 5 5 5 5 2 6 8 4 3 5 4 4 7 9 9 9 9 9 9 8 7 6 5 4 4 4 5 5 5 6 6 8 10 11 11 7 1 1 0 2 4 3 6 9 14 15 12 12 11 10 9 17 25 17 11 9 4 6 7 8 10 8 9 9 9 10 7 3 3 2 4 6 6 9
8 8 9 7 8 9 10 10 9 11 7 9 13 8 1 -0 1 -4 -6 -0 2 2 2 4 4 4 4 5 10 8 1 1 6 5 5 8 10 11 9 10 9 7 7 6 5 5 4 4 4 5 5 6 7 7 9 11 11 8 5 0 -0 0 1 3 4 7 8 10 11 10 11 9 8 6 12 24 17 14 16 7 7 9 7 10 8 8 8 9 10 7 4 3 3 3 5 6 8
9 8 9 8 9 9 8 10 8 8 7 11 17 12 6 4 3 -0 -1 2 0 2 5 4 5 5 4 7 8 8 5 3 8 8 7 9 11 13 10 9 7 5 6 6 5 4 4 4 5 6 6 7 7 8 11 11 10 6 3 1 0 1 2 4 6 9 10 10 11 11 11 8 8 6 4 17 18 17 20 7 3 8 7 9 8 8 8 9 10 8 5 3 3 3 3 5 6
10 9 10 9 10 9 9 12 10 10 10 17 18 11 11 8 8 8 3 3 2 4 7 5 5 4 6 10 9 10 12 9 8 9 9 10 10 12 12 9 7 5 4 4 5 4 4 4 5 6 6 7 9 10 11 10 9 5 3 2 2 3 3 5 9 11 12 12 12 12 11 10 13 9 -1 9 19 20 18 4 -0 5 6 9 8 8 8 9 11 8 4 2 3 3 3 5 6
10 9 10 10 11 10 13 13 12 16 15 19 17 9 10 3 2 9 4 2 4 5 4 5 6 4 5 8 9 6 8 11 10 7 7 11 12 11 11 10 8 5 4 3 4 3 4 5 5 6 7 8 10 9 9 7 6 5 5 4 3 4 5 7 11 13 14 13 13 11 10 12 15 13 2 5 16 20 16 3 -0 5 6 9 8 8 8 9 11 8 4 3 3 2 3 5 6
8 9 9 10 11 10 14 12 11 19 18 20 16 8 10 -0 -8 3 9 2 2 6 2 4 4 5 9 5 6 6 5 8 10 11 9 9 12 12 10 9 7 5 5 4 4 4 4 5 6 7 8 8 8 7 6 5 5 6 6 6 7 7 6 8 11 13 13 13 13 10 8 10 12 10 7 7 12 18 18 8 0 4 7 7 8 8 8 9 10 8 4 2 2 3 3 5 7
8 9 10 11 12 12 14 11 11 14 12 17 16 8 8 5 -3 -3 5 2 1 7 2 1 4 10 13 5 6 11 8 5 8 12 10 8 9 11 10 6 7 7 5 5 4 5 5 6 7 7 7 7 7 5 6 7 8 8 8 8 9 9 9 9 10 11 11 11 10 8 7 8 10 8 8 11 11 12 18 18 5 2 6 5 8 8 7 9 9 7 4 2 2 2 2 5 6
8 9 10 11 11 14 14 14 18 11 2 9 17 14 4 4 8 2 4 4 0 5 2 3 9 11 10 7 9 9 5 3 7 12 9 8 6 6 8 6 5 6 4 5 5 5 7 8 7 6 6 7 7 7 7 8 8 8 8 9 10 9 10 10 10 9 8 9 9 8 8 8 9 9 10 13 13 9 12 21 10 2 6 4 6 8 7 9 9 7 4 2 1 1 2 4 5
9 9 10 10 12 18 18 16 17 12 4 -1 8 16 -1 -6 5 6 7 6 2 3 2 4 7 5 7 10 9 8 7 3 5 10 9 8 7 5 6 7 5 5 5 4 5 6 7 8 7 6 7 9 9 9 9 8 8 9 9 9 10 11 11 10 9 7 4 6 10 11 11 9 9 10 12 14 15 10 6 15 11 3 6 5 5 7 7 8 10 9 5 3 2 1 1 3 4
9 10 9 11 14 15 11 12 13 13 9 -6 -1 14 3 -8 -3 2 2 3 6 3 1 4 1 -2 3 7 6 9 12 7 4 7 10 9 8 5 3 6 5 5 6 5 6 7 7 6 5 6 9 12 12 12 12 10 9 8 9 10 12 12 10 9 9 7 5 4 6 9 12 12 12 10 12 15 15 11 5 7 8 6 6 4 5 7 7 7 9 10 7 5 3 3 1 1 3
10 10 11 14 17 13 6 11 11 8 7 -4 -5 4 8 2 -4 2 3 1 6 4 2 3 2 1 5 7 5 9 13 10 4 6 13 11 6 6 4 5 6 6 7 8 9 9 9 7 6 9 9 11 11 12 11 9 8 7 8 10 11 10 9 10 9 7 7 6 5 7 11 14 14 12 12 15 15 12 7 5 5 7 9 5 4 6 7 7 8 10 9 5 4 3 2 1 1
10 10 12 7 5 14 14 14 10 5 7 3 -4 -6 3 5 -2 4 3 -2 0 2 2 -0 4 9 10 11 7 7 9 10 9 9 15 13 8 7 5 5 6 6 7 9 9 9 10 9 10 11 9 8 7 8 8 7 6 6 7 8 8 7 8 9 10 9 8 7 7 5 7 12 14 13 13 13 14 13 8 6 6 6 9 8 5 5 6 7 7 9 10 7 4 3 2 2 1
10 10 11 4 4 15 12 9 9 7 6 4 4 -1 -2 -2 -1 6 3 -1 1 1 3 2 6 9 10 15 12 8 6 11 17 13 12 15 13 10 7 6 5 4 6 7 7 10 11 10 11 9 7 7 6 6 6 5 5 5 6 6 6 5 6 7 9 10 9 9 8 5 6 9 11 11 13 11 10 13 9 6 7 8 8 5 4 5 5 6 6 7 10 9 5 4 3 2 2
12 10 8 7 14 12 1 4 6 7 8 4 6 4 -1 -1 0 4 0 -0 4 5 7 6 5 9 14 18 16 14 12 16 18 10 9 13 13 12 10 8 8 7 6 6 7 9 8 6 7 8 8 7 5 5 4 4 5 5 5 4 5 5 4 5 6 7 8 9 8 8 7 9 10 9 13 12 7 9 12 11 7 6 11 8 2 2 5 5 6 6 8 10 7 4 4 2 1
10 11 11 6 7 2 -1 7 5 8 9 2 3 2 2 5 2 2 1 2 6 8 10 11 12 15 18 18 19 19 17 18 13 6 7 10 9 9 9 8 9 9 8 10 10 8 6 3 3 5 7 7 4 3 4 4 3 4 4 4 4 4 4 3 3 4 5 8 8 7 6 8 10 9 10 13 11 8 9 13 11 5 10 16 9 1 3 4 4 6 6 8 10 6 4 4 2
8 10 12 10 8 3 6 9 6 9 4 -1 2 0 3 4 -0 1 4 7 12 15 17 18 17 14 10 10 13 12 10 13 10 6 7 8 8 4 3 6 9 11 10 10 8 7 7 5 5 4 4 6 5 3 4 4 3 4 4 4 5 4 4 3 3 3 3 5 7 6 6 6 8 10 10 8 10 14 13 14 13 7 7 16 19 8 1 4 4 5 6 6 9 10 6 3 3
8 8 7 9 12 7 10 12 7 7 -1 1 12 11 11 7 1 2 7 15 19 22 20 14 9 7 6 7 9 5 4 7 5 5 6 4 4 1 2 7 11 13 10 7 5 5 7 7 8 7 3 4 6 4 5 6 5 5 5 5 6 5 5 4 4 4 4 5 5 6 7 7 7 11 14 9 6 10 16 20 16 11 8 11 20 17 5 3 4 4 4 4 6 10 10 6 4
9 8 4 5 9 6 9 11 10 15 6 3 13 16 15 12 9 9 11 15 16 15 10 5 3 4 5 6 6 4 4 8 6 5 8 6 4 3 5 7 10 10 8 6 4 4 6 6 7 8 6 3 5 5 6 7 7 7 7 6 6 6 5 5 5 5 5 5 5 5 6 7 8 9 13 14 13 10 12 19 20 17 13 10 16 20 10 2 2 4 2 2 6 7 9 9 6
12 11 10 5 7 6 6 11 19 29 22 8 9 13 9 3 0 2 6 8 6 6 4 3 2 4 8 8 6 6 7 11 8 6 9 9 6 6 7 7 6 5 5 4 3 4 5 6 6 7 7 5 5 6 7 9 8 8 7 7 7 6 6 6 6 6 6 6 5 5 5 7 8 9 10 8 9 12 9 11 17 16 14 15 15 16 19 13 3 4 3 0 5 7 8 10 8
15 19 22 9 6 7 7 15 20 22 20 11 11 15 15 7 -0 3 8 7 6 5 4 4 3 5 9 8 5 6 8 9 8 7 8 9 8 8 7 6 4 3 3 2 2 4 5 6 6 7 7 7 6 6 8 9 8 8 7 8 8 7 7 7 6 5 6 6 6 5 6 7 7 8 10 6 5 9 10 10 11 11 13 18 17 12 20 27 12 2 4 2 4 7 7 8 8
15 24 30 17 10 12 9 12 11 8 10 8 7 10 16 15 8 8 7 5 5 5 5 6 6 6 6 5 4 5 6 6 8 8 7 7 9 9 7 5 4 4 2 1 3 3 5 7 5 6 7 8 8 8 9 9 8 7 7 7 7 7 6 6 6 6 7 7 6 6 6 8 9 8 8 9 11 10 12 14 12 12 14 16 19 15 13 30 30 9 3 3 1 5 7 7 8
8 13 19 15 11 11 8 7 6 6 9 9 7 6 8 11 7 3 3 4 3 3 6 8 7 7 7 6 5 5 5 6 7 7 6 6 7 7 5 4 4 4 2 2 4 4 5 7 5 5 6 8 9 8 8 8 8 6 6 6 5 6 6 7 7 7 8 7 7 6 7 7 8 10 9 8 9 10 11 14 14 14 13 8 10 15 10 20 34 19 8 6 1 3 6 7 8
4 3 5 7 7 5 4 7 5 4 6 9 10 7 7 8 7 5 6 6 5 4 5 7 7 7 7 6 5 5 5 6 7 7 6 4 5 5 3 3 3 4 3 3 5 5 5 6 6 5 6 8 9 9 9 8 7 6 6 5 5 6 8 10 10 10 8 7 7 6 7 7 6 8 9 10 9 9 9 9 13 14 14 8 4 12 10 10 19 16 12 9 4 3 3 6 8
3 2 2 3 3 2 2 4 4 4 5 6 8 8 8 6 4 5 7 7 6 7 6 4 6 6 5 7 7 8 8 8 9 9 8 6 6 5 4 4 4 5 5 4 5 6 5 5 6 6 7 7 8 10 9 7 6 5 6 6 7 8 9 11 11 12 11 8 9 6 7 8 7 8 8 10 10 9 9 8 10 11 12 10 8 15 13 11 9 4 15 18 9 4 2 5 4
4 4 4 3 2 2 3 3 3 5 5 5 6 6 10 12 10 8 8 11 10 10 9 5 6 7 5 7 8 9 10 10 11 11 12 11 9 8 7 7 6 7 7 7 7 7 6 5 6 7 6 7 8 9 9 8 7 6 7 7 8 9 10 11 10 12 13 12 12 10 10 9 8 9 7 9 10 9 8 8 8 7 8 6 7 13 11 13 5 4 36 39 20 15 10 11 7
2 3 3 4 6 6 7 6 5 8 8 8 7 5 7 10 12 10 6 11 16 14 11 9 9 9 7 9 10 9 9 9 11 12 12 12 11 9 8 8 7 9 10 10 9 8 7 6 6 6 6 7 7 7 7 7 7 8 8 7 8 9 10 11 10 10 11 12 14 14 14 12 9 8 7 8 9 9 6 6 10 9 10 5 4 10 6 9 6 10 40 34 18 26 20 15 12
4 5 6 8 9 8 7 8 7 8 10 10 10 10 8 4 8 12 7 6 12 14 14 12 10 10 9 9 8 7 7 8 8 9 10 11 11 10 9 9 7 8 9 8 7 7 7 6 6 6 6 7 7 7 7 7 8 8 8 8 8 9 9 10 9 10 10 10 11 12 14 14 12 9 8 8 8 8 7 7 11 9 11 8 5 9 5 7 6 7 28 26 13 23 23 18 16
7 8 9 9 10 8 7 7 7 8 11 10 6 7 9 6 3 5 6 5 4 5 7 8 7 6 4 3 4 6 6 6 7 8 8 7 8 9 10 11 9 7 7 6 6 7 8 7 7 7 7 7 7 8 7 7 7 7 8 9 8 9 9 9 10 10 11 11 10 9 11 12 13 12 10 9 7 8 8 8 9 7 8 9 7 8 8 9 8 1 13 21 6 5 15 14 15
6 6 6 7 7 7 6 7 9 9 11 7 2 4 7 5 3 1 3 5 4 5 6 7 5 4 4 4 4 7 8 8 10 10 9 9 9 9 10 11 11 10 8 7 8 8 7 8 7 7 8 7 8 8 7 7 8 8 9 9 9 9 10 10 10 11 11 12 12 10 10 10 11 12 11 11 10 9 10 8 7 6 4 7 6 5 5 6 9 3 4 13 5 -0 9 6 10
5 5 5 6 5 6 7 8 8 6 5 2 -1 3 7 3 3 3 2 1 3 8 12 11 6 2 3 5 5 7 8 8 10 9 9 11 13 13 13 13 11 9 8 9 11 9 6 6 8 9 9 8 8 7 7 7 8 8 9 9 10 9 10 10 9 10 11 11 12 11 11 10 9 10 10 11 11 10 11 10 8 8 5 5 7 5 3 2 6 7 5 9 7 2 8 8 8
5 5 6 7 6 7 7 6 7 5 3 0 -5 -2 6 6 2 1 -1 -2 -0 6 14 17 13 8 4 4 6 6 5 6 8 8 7 10 13 14 12 13 13 11 10 12 11 8 6 7 9 10 8 7 6 7 7 8 8 9 9 10 10 9 10 11 10 9 10 10 12 11 10 11 9 9 9 8 10 9 10 11 9 10 9 7 7 6 5 5 6 7 6 7 7 4 7 8 8
8 7 6 7 7 8 9 9 5 3 2 1 -1 -4 -2 3 4 4 3 -1 -1 4 6 6 7 9 9 8 6 5 4 5 7 7 7 8 9 9 10 12 14 13 11 11 9 7 8 9 10 9 8 7 7 7 7 8 9 9 10 11 10 10 9 10 10 9 9 9 9 11 10 10 10 10 10 8 9 9 9 10 9 9 11 9 8 8 7 7 7 7 8 7 8 9 7 4 3
9 10 10 10 8 7 11 11 5 4 2 -1 3 1 -3 4 4 2 4 2 5 9 6 5 10 14 13 9 7 5 6 8 9 9 8 8 8 8 11 13 15 15 12 10 10 10 11 10 9 9 10 10 9 9 9 9 9 9 11 12 10 10 9 9 9 8 9 9 8 9 10 9 10 9 10 10 9 9 9 10 11 9 9 9 8 8 8 8 8 7 8 8 8 9 10 9 6
10 10 10 11 12 12 12 11 6 4 2 -2 2 1 -3 4 6 3 6 8 10 11 10 12 17 20 19 16 12 8 9 11 10 11 11 11 11 11 14 14 13 13 12 10 10 10 11 11 11 10 10 11 11 11 10 10 10 10 11 12 12 11 9 9 9 9 8 8 8 8 8 8 9 9 9 10 9 10 9 9 11 10 10 9 8 8 8 7 8 7 8 9 10 10 10 12 12
11 12 11 9 7 6 5 8 8 4 5 3 2 -0 -6 0 17 26 26 19 13 13 19 19 17 19 18 15 14 9 10 14 11 10 13 14 13 12 12 13 12 12 12 11 9 8 9 11 11 11 10 11 12 11 11 10 10 11 12 12 13 12 10 9 9 9 8 8 8 8 8 7 8 9 8 9 9 9 9 9 9 9 9 10 9 8 9 8 8 8 8 9 9 10 10 11 12
10 15 19 18 13 8 4 5 8 4 3 4 7 11 8 15 32 35 26 19 16 16 17 15 14 18 17 16 16 10 12 20 18 9 7 8 8 8 7 8 11 11 11 10 9 9 9 10 11 11 11 10 10 10 9 9 9 11 13 12 13 12 11 9 8 9 9 8 8 8 8 7 6 7 7 8 9 9 9 9 8 8 8 9 9 9 8 8 8 7 8 8 8 8 8 10 11
12 13 13 18 22 23 18 15 15 10 12 24 32 27 17 20 27 20 15 19 24 21 11 9 12 9 8 13 12 8 8 14 19 16 10 7 8 10 11 11 12 10 10 11 10 9 8 9 11 10 10 9 10 10 10 10 10 11 13 12 12 12 11 9 8 9 9 8 8 8 7 8 7 6 5 6 7 8 9 9 9 9 8 7 7 8 8 7 7 6 7 7 7 7 7 8 9
10 8 5 8 14 19 21 21 18 16 22 27 26 19 10 15 20 13 13 18 19 14 9 13 14 5 4 11 11 7 6 7 13 16 13 10 10 12 13 13 13 12 12 11 10 11 9 9 10 10 10 9 8 9 10 11 12 12 13 12 12 12 11 10 9 8 9 9 9 8 7 7 8 8 7 6 5 6 7 8 9 9 9 9 7 6 7 7 7 6 6 6 6 7 6 6 8
6 6 8 11 17 18 16 17 14 15 21 14 9 11 7 12 20 15 10 9 7 10 13 12 12 11 9 11 11 7 8 12 13 7 3 3 0 0 8 13 13 12 12 12 10 10 9 8 9 9 10 10 9 10 10 11 12 12 12 12 12 13 12 12 10 8 8 8 8 8 7 6 6 7 7 7 7 7 6 7 8 9 9 10 9 8 6 5 7 7 6 6 6 7 7 6 6
15 11 16 21 24 19 7 5 9 9 8 4 5 8 5 10 21 22 15 8 5 12 16 12 12 15 8 3 6 5 3 6 7 5 3 1 -3 -1 7 13 13 8 6 8 7 6 6 6 7 8 8 8 8 9 11 11 11 11 11 11 11 12 12 11 11 10 8 8 8 8 8 8 6 6 6 6 6 7 8 8 8 9 9 10 10 10 9 7 6 5 7 7 7 6 6 7 7
14 9 15 17 12 9 5 5 10 11 11 10 5 3 5 8 12 20 19 6 3 11 12 5 4 5 -2 -4 0 1 -1 -2 3 9 4 -1 4 11 13 14 17 15 11 10 9 7 7 5 5 7 8 9 7 8 10 11 10 10 10 10 10 10 10 11 11 11 9 9 9 8 7 8 9 8 8 8 7 6 7 8 8 9 10 10 10 9 9 10 8 7 6 6 8 8 6 6 7
12 8 7 7 5 8 9 7 9 10 11 11 6 2 1 -0 5 20 17 -1 -4 9 15 11 8 4 -4 -4 3 7 5 1 3 5 -1 -1 10 15 14 13 14 15 14 16 15 12 12 11 9 8 7 6 5 4 6 8 9 9 8 8 9 9 10 10 11 11 10 9 9 9 9 8 9 10 10 10 10 8 7 6 6 7 7 9 10 10 9 9 9 8 7 6 5 6 7 7 6
11 11 5 5 9 8 4 2 5 5 5 6 5 4 5 8 12 16 15 5 -5 -3 8 12 11 9 2 3 12 10 3 2 4 5 4 9 14 14 12 10 9 10 9 9 10 11 12 14 14 14 10 7 4 2 4 6 7 8 8 7 7 7 7 8 9 9 9 9 8 8 8 8 7 7 7 8 8 8 8 6 5 4 3 4 4 6 7 7 7 7 7 7 5 3 4 4 4
8 14 11 5 2 2 3 4 5 6 6 4 0 4 12 16 8 -1 5 11 3 -1 6 6 -3 -3 2 8 9 -2 -5 4 10 14 17 16 11 9 11 10 7 7 9 9 8 9 11 14 15 16 16 13 9 5 3 4 4 4 5 5 5 5 5 4 5 6 7 7 7 7 7 7 6 6 6 5 6 6 7 7 7 7 5 3 2 1 2 3 4 5 5 6 7 6 4 3 2
4 5 8 6 3 6 10 9 6 4 2 -1 0 7 14 12 5 2 4 8 7 3 4 2 -7 -8 0 4 0 -5 -3 2 5 10 9 2 2 10 16 12 3 5 14 16 12 8 8 10 11 12 17 21 19 15 11 7 3 2 3 4 5 6 5 4 4 5 6 5 5 6 6 6 6 7 7 7 7 7 7 7 8 9 9 8 8 6 5 4 4 4 5 4 4 6 7 7 6
-2 -4 -1 2 1 3 7 8 8 5 2 5 9 8 9 9 7 6 3 2 5 2 -1 0 -3 -1 5 5 5 9 8 4 4 5 -2 -6 5 16 11 1 2 15 20 10 6 6 2 4 5 3 5 12 15 18 20 17 11 8 8 7 6 6 4 4 4 5 6 5 4 4 5 6 6 6 6 6 5 4 4 4 4 6 7 8 9 8 8 9 8 7 7 6 5 4 5 7 8
2 6 6 5 3 2 3 1 1 2 -0 1 3 1 5 8 6 7 7 5 6 4 -0 -4 -7 2 12 11 11 12 9 5 4 5 4 0 3 6 1 -1 9 22 14 -5 -4 3 1 6 12 8 5 5 8 12 15 18 18 16 15 14 13 12 10 7 6 7 7 6 6 6 6 7 7 7 7 6 6 6 4 4 4 4 5 6 7 8 7 7 8 8 8 8 8 6 5 5 6
-3 -1 1 6 12 12 7 2 1 4 2 -2 -3 -2 3 5 3 8 13 15 15 12 8 4 4 13 16 10 6 3 4 5 3 4 5 -1 -5 -2 6 10 10 8 -4 -13 -4 2 -2 3 10 15 17 10 3 1 3 7 10 9 11 12 13 14 15 14 12 11 10 9 9 9 9 9 8 9 10 10 10 10 9 9 8 7 6 6 6 6 7 7 7 7 7 7 7 7 7 6 5
-1 -1 0 2 6 9 6 3 5 7 5 5 2 -1 6 14 11 7 12 17 16 12 11 14 14 12 8 3 1 4 9 10 7 9 10 3 -5 -7 -3 -1 -0 -2 -7 -5 6 4 0 8 9 7 14 13 -1 -8 -4 6 11 8 5 4 6 7 9 13 14 13 14 14 13 12 11 12 11 11 10 11 10 10 10 10 10 9 8 8 8 7 7 7 7 7 6 6 6 5 5 6 6
Height
5842 5843 5844 5845 5845 5847 5848 5849 5851 5852 5854 5853 5852 5851 5849 5846 5845 5845 5847 5849 5851 5852 5852 5854 5857 5857 5857 5857 5856 5856 5856 5857 5857 5858 5858 5859 5859 5860 5859 5859 5858 5858 5857 5857 5857 5857 5856 5856 5856 5856 5856 5856 5856 5856 5856 5856 5856 5856 5856 5857 5857 5857 5857 5857 5857 5857 5857 5857 5857 5856 5857 5858 5859 5859 5859 5859 5860 5861 5861 5861 5862 5862 5862 5862 5862 5862 5862 5862 5862 5862 5863 5863 5863 5863 5863 5863 5864
5839 5840 5841 5842 5843 5844 5845 5846 5848 5850 5852 5851 5849 5847 5845 5844 5844 5843 5845 5847 5849 5850 5851 5852 5854 5855 5857 5857 5856 5855 5855 5855 5856 5856 5856 5857 5857 5857 5857 5856 5856 5856 5856 5855 5855 5855 5854 5854 5854 5854 5854 5854 5854 5854 5854 5854 5854 5854 5855 5855 5855 5855 5855 5855 5855 5855 5855 5855 5855 5855 5856 5856 5857 5857 5858 5858 5858 5859 5860 5860 5860 5860 5860 5860 5860 5861 5861 5861 5862 5862 5862 5862 5862 5863 5863 5863 5863
5837 5837 5838 5839 5840 5841 5842 5844 5845 5847 5849 5848 5844 5842 5842 5842 5842 5842 5843 5846 5847 5848 5850 5851 5852 5854 5855 5855 5854 5854 5854 5854 5854 5854 5854 5855 5855 5855 5855 5854 5854 5854 5854 5854 5853 5853 5852 5852 5852 5852 5852 5852 5852 5852 5852 5852 5852 5852 5853 5853 5853 5853 5853 5853 5853 5853 5853 5853 5853 5853 5854 5854 5855 5855 5856 5857 5857 5857 5858 5858 5858 5859 5859 5859 5859 5859 5860 5861 5861 5861 5861 5861 5862 5862 5862 5862 5863
5834 5834 5835 5836 5837 5838 5840 5841 5843 5845 5847 5844 5841 5841 5841 5840 5840 5841 5840 5843 5846 5847 5848 5849 5851 5853 5853 5852 5852 5852 5852 5852 5852 5852 5852 5853 5853 5853 5853 5852 5852 5852 5852 5852 5852 5851 5851 5850 5850 5850 5850 5850 5850 5850 5850 5850 5850 5851 5851 5851 5851 5851 5851 5851 5851 5851 5851 5851 5851 5852 5852 5852 5853 5853 5854 5855 5855 5855 5856 5856 5857 5857 5858 5858 5858 5858 5859 5860 5860 5860 5861 5861 5861 5862 5862 5862 5862
5830 5831 5832 5833 5834 5835 5837 5838 5840 5843 5844 5841 5838 5838 5839 5837 5837 5838 5837 5839 5842 5845 5846 5848 5850 5851 5851 5850 5851 5851 5850 5851 5850 5850 5850 5851 5851 5850 5850 5850 5850 5850 5850 5850 5850 5849 5848 5848 5848 5848 5848 5848 5848 5848 5848 5848 5848 5849 5849 5850 5850 5849 5849 5849 5849 5849 5850 5850 5850 5850 5850 5850 5851 5852 5852 5853 5853 5854 5854 5855 5855 5856 5856 5856 5856 5857 5858 5858 5859 5860 5860 5860 5861 5861 5861 5861 5862
5827 5828 5829 5830 5831 5833 5834 5836 5839 5841 5841 5837 5834 5834 5836 5835 5834 5835 5836 5837 5838 5840 5843 5846 5848 5849 5849 5849 5850 5850 5850 5850 5849 5848 5848 5848 5849 5848 5848 5848 5848 5848 5848 5848 5847 5847 5847 5846 5847 5847 5846 5846 5846 5846 5846 5847 5847 5847 5848 5848 5848 5848 5847 5847 5847 5847 5847 5848 5848 5848 5849 5849 5849 5850 5850 5850 5851 5852 5852 5853 5853 5854 5854 5855 5855 5856 5856 5857 5858 5858 5859 5859 5860 5860 5860 5861 5861
5824 5825 5826 5827 5828 5830 5832 5834 5836 5838 5837 5835 5831 5832 5833 5832 5832 5833 5834 5835 5835 5837 5840 5843 5846 5847 5847 5848 5849 5849 5849 5848 5848 5846 5846 5846 5846 5846 5845 5845 5846 5846 5846 5845 5845 5845 5845 5845 5845 5845 5845 5845 5845 5845 5845 5845 5845 5846 5846 5846 5846 5846 5845 5844 5844 5845 5845 5845 5846 5846 5847 5847 5847 5848 5848 5848 5849 5850 5850 5851 5852 5852 5853 5853 5854 5854 5855 5856 5857 5857 5858 5858 5859 5860 5860 5860 5861
5821 5822 5823 5824 5826 5827 5829 5831 5833 5835 5834 5833 5829 5829 5831 5830 5830 5830 5830 5831 5833 5835 5838 5840 5843 5844 5845 5846 5847 5847 5847 5847 5846 5845 5844 5844 5844 5843 5843 5843 5843 5843 5843 5843 5843 5843 5843 5843 5843 5844 5844 5843 5843 5843 5843 5844 5844 5844 5845 5845 5845 5844 5843 5843 5843 5843 5843 5843 5843 5844 5845 5845 5845 5845 5846 5846 5847 5848 5848 5849 5850 5851 5851 5852 5852 5853 5854 5855 5855 5856 5856 5857 5858 5859 5859 5860 5860
5818 5819 5820 5821 5823 5824 5827 5829 5831 5832 5831 5830 5827 5826 5828 5828 5828 5827 5825 5827 5830 5833 5836 5839 5841 5841 5842 5843 5844 5845 5845 5844 5843 5842 5842 5842 5841 5841 5841 5841 5841 5841 5841 5841 5841 5841 5841 5841 5841 5842 5842 5842 5842 5842 5842 5842 5843 5843 5843 5843 5843 5842 5841 5841 5841 5841 5841 5841 5841 5842 5842 5843 5843 5842 5843 5844 5844 5845 5846 5847 5848 5849 5850 5851 5851 5852 5853 5853 5854 5855 5855 5856 5857 5858 5859 5859 5860
5815 5816 5817 5819 5821 5822 5825 5826 5828 5829 5827 5826 5823 5822 5824 5825 5825 5824 5822 5824 5828 5831 5833 5836 5838 5839 5839 5840 5842 5843 5844 5842 5840 5839 5839 5840 5839 5840 5839 5839 5838 5838 5838 5839 5839 5839 5839 5839 5840 5840 5840 5840 5840 5840 5840 5841 5841 5841 5842 5842 5842 5841 5840 5839 5839 5839 5839 5839 5839 5840 5840 5841 5840 5840 5840 5841 5842 5843 5844 5845 5846 5847 5848 5849 5850 5851 5851 5852 5853 5853 5854 5855 5857 5857 5858 5859 5859
5812 5813 5815 5816 5818 5820 5822 5823 5824 5824 5823 5822 5820 5819 5821 5822 5823 5821 5820 5821 5824 5828 5830 5832 5834 5836 5837 5838 5840 5842 5842 5841 5838 5836 5837 5838 5838 5837 5836 5836 5836 5836 5837 5837 5837 5837 5837 5837 5838 5838 5838 5838 5839 5839 5839 5839 5839 5840 5840 5840 5840 5840 5839 5838 5838 5837 5838 5837 5838 5838 5838 5838 5838 5838 5838 5838 5840 5841 5842 5843 5845 5846 5847 5848 5849 5849 5850 5850 5851 5852 5854 5855 5856 5857 5857 5858 5858
5810 5811 5812 5814 5816 5817 5819 5820 5820 5819 5819 5819 5817 5817 5819 5820 5819 5818 5820 5820 5821 5826 5828 5830 5831 5833 5835 5837 5839 5839 5840 5838 5837 5835 5835 5835 5835 5834 5834 5834 5834 5834 5835 5835 5835 5835 5835 5836 5836 5837 5836 5836 5837 5837 5837 5837 5838 5838 5838 5839 5838 5838 5838 5837 5836 5836 5836 5835 5835 5836 5836 5836 5836 5836 5836 5836 5837 5839 5840 5841 5843 5845 5846 5846 5847 5848 5848 5849 5850 5851 5853 5854 5855 5856 5856 5857 5858
5807 5809 5810 5811 5813 5815 5816 5818 5817 5817 5817 5817 5815 5815 5817 5817 5816 5815 5818 5818 5819 5824 5826 5826 5828 5831 5833 5836 5837 5836 5836 5836 5835 5834 5833 5833 5833 5832 5832 5832 5832 5832 5832 5832 5833 5833 5833 5834 5835 5835 5835 5835 5835 5835 5835 5836 5836 5836 5837 5837 5836 5836 5836 5835 5835 5834 5834 5833 5833 5834 5834 5834 5834 5834 5834 5835 5836 5837 5838 5839 5841 5843 5844 5845 5845 5846 5847 5848 5849 5850 5852 5853 5854 5855 5855 5856 5857
5805 5807 5808 5809 5811 5812 5814 5815 5815 5814 5814 5814 5813 5812 5814 5814 5812 5812 5815 5816 5818 5821 5822 5823 5826 5829 5832 5834 5835 5833 5833 5833 5833 5832 5831 5831 5831 5831 5831 5830 5830 5830 5830 5830 5830 5831 5831 5832 5833 5833 5833 5833 5833 5833 5833 5834 5834 5834 5835 5835 5835 5834 5834 5834 5833 5833 5832 5832 5832 5832 5832 5832 5832 5832 5832 5833 5834 5835 5837 5838 5839 5841 5842 5843 5844 5844 5845 5846 5847 5849 5850 5851 5853 5854 5854 5855 5856
5802 5804 5806 5808 5809 5811 5812 5811 5811 5811 5811 5812 5811 5810 5812 5811 5810 5810 5812 5815 5816 5817 5819 5821 5824 5826 5828 5831 5832 5831 5830 5830 5830 5830 5830 5829 5829 5829 5829 5828 5828 5828 5828 5828 5828 5829 5830 5831 5831 5831 5831 5831 5831 5832 5832 5832 5832 5832 5833 5833 5833 5832 5832 5832 5831 5831 5830 5830 5830 5830 5830 5830 5830 5830 5831 5831 5832 5833 5835 5836 5838 5839 5840 5842 5842 5843 5844 5845 5846 5847 5849 5850 5851 5853 5853 5854 5855
5800 5802 5804 5806 5807 5809 5808 5806 5806 5807 5808 5810 5810 5810 5810 5808 5808 5809 5810 5813 5813 5815 5817 5819 5822 5823 5825 5827 5828 5830 5829 5828 5828 5828 5827 5827 5826 5826 5826 5826 5826 5826 5825 5826 5826 5827 5828 5829 5829 5830 5830 5830 5830 5830 5830 5830 5830 5830 5831 5831 5831 5831 5830 5830 5829 5829 5829 5828 5828 5828 5828 5828 5828 5829 5829 5830 5831 5831 5832 5834 5836 5837 5838 5840 5841 5841 5842 5843 5844 5845 5847 5848 5849 5851 5852 5853 5854
5798 5800 5802 5804 5806 5806 5803 5802 5803 5804 5805 5806 5807 5808 5808 5806 5807 5808 5809 5811 5812 5813 5814 5817 5820 5821 5822 5822 5825 5827 5826 5826 5826 5825 5825 5825 5824 5824 5823 5823 5823 5823 5823 5824 5825 5826 5827 5827 5828 5828 5828 5828 5828 5828 5828 5828 5828 5829 5829 5829 5829 5829 5829 5828 5827 5827 5827 5827 5827 5827 5826 5826 5827 5827 5828 5828 5829 5830 5830 5832 5834 5835 5836 5838 5839 5840 5840 5841 5842 5843 5844 5846 5847 5848 5850 5851 5852
5796 5798 5800 5802 5803 5801 5798 5799 5800 5801 5802 5802 5803 5805 5806 5805 5805 5807 5808 5808 5810 5811 5811 5814 5818 5819 5819 5819 5821 5824 5824 5823 5823 5824 5823 5823 5822 5822 5821 5820 5820 5821 5821 5822 5823 5824 5825 5826 5826 5826 5826 5826 5826 5826 5826 5826 5826 5827 5827 5827 5828 5827 5827 5826 5826 5826 5826 5826 5826 5825 5825 5825 5825 5825 5826 5827 5828 5828 5829 5830 5831 5833 5834 5835 5837 5838 5839 5840 5841 5842 5843 5844 5845 5846 5848 5849 5850
5794 5796 5798 5800 5798 5795 5794 5796 5797 5799 5799 5799 5801 5802 5802 5803 5804 5804 5805 5805 5806 5808 5808 5811 5815 5818 5817 5816 5818 5820 5821 5820 5820 5821 5822 5821 5821 5820 5819 5819 5818 5818 5819 5820 5822 5823 5823 5823 5824 5824 5825 5825 5825 5825 5824 5824 5824 5825 5825 5825 5825 5825 5825 5825 5824 5824 5824 5824 5824 5824 5823 5823 5823 5823 5824 5825 5825 5826 5827 5828 5829 5831 5832 5833 5835 5836 5837 5838 5839 5840 5842 5843 5843 5844 5845 5847 5848
5792 5794 5797 5796 5793 5791 5792 5794 5795 5796 5798 5799 5799 5799 5800 5801 5801 5801 5802 5802 5803 5804 5806 5809 5813 5815 5815 5814 5814 5816 5817 5818 5818 5820 5820 5819 5819 5819 5818 5817 5817 5818 5818 5819 5820 5821 5821 5821 5821 5822 5823 5823 5823 5823 5823 5823 5823 5823 5823 5823 5823 5823 5823 5823 5822 5822 5822 5823 5823 5822 5822 5821 5821 5821 5822 5822 5823 5824 5825 5826 5827 5829 5830 5831 5833 5834 5835 5836 5837 5838 5840 5841 5842 5843 5844 5845 5846
5790 5792 5793 5791 5789 5790 5792 5793 5793 5794 5796 5797 5797 5797 5797 5798 5797 5797 5800 5801 5801 5803 5804 5808 5810 5811 5811 5811 5811 5812 5814 5816 5817 5818 5818 5817 5817 5817 5816 5816 5816 5817 5818 5818 5819 5819 5819 5819 5820 5821 5821 5822 5822 5821 5821 5821 5821 5821 5821 5821 5821 5821 5821 5820 5820 5820 5820 5821 5821 5821 5820 5820 5820 5819 5820 5820 5821 5821 5823 5824 5825 5827 5828 5829 5830 5832 5833 5834 5835 5836 5838 5839 5840 5841 5842 5844 5845
5788 5790 5789 5787 5788 5789 5790 5791 5791 5793 5793 5794 5795 5795 5795 5795 5794 5794 5797 5800 5801 5802 5804 5806 5808 5808 5808 5808 5808 5810 5811 5814 5815 5815 5815 5814 5814 5815 5814 5814 5814 5815 5817 5817 5818 5818 5818 5818 5818 5819 5820 5820 5820 5820 5820 5819 5819 5819 5819 5819 5819 5819 5819 5819 5819 5819 5819 5819 5819 5819 5818 5818 5818 5818 5818 5819 5819 5819 5820 5822 5823 5824 5825 5826 5828 5829 5831 5832 5833 5834 5836 5837 5838 5839 5840 5842 5843
5785 5786 5786 5785 5786 5787 5788 5789 5790 5790 5791 5791 5792 5792 5792 5793 5792 5792 5795 5798 5799 5801 5802 5804 5806 5806 5805 5805 5806 5807 5809 5811 5811 5811 5812 5812 5812 5812 5812 5812 5812 5814 5814 5815 5816 5816 5817 5817 5817 5817 5818 5818 5819 5818 5818 5817 5817 5817 5817 5817 5817 5817 5817 5817 5817 5817 5817 5817 5817 5816 5816 5816 5816 5816 5816 5817 5817 5818 5818 5819 5821 5822 5823 5824 5826 5827 5828 5830 5831 5833 5834 5835 5836 5837 5839 5840 5841
5782 5783 5783 5784 5784 5785 5786 5787 5788 5788 5788 5788 5789 5790 5791 5790 5790 5791 5794 5796 5797 5798 5799 5801 5803 5803 5803 5804 5805 5806 5807 5807 5808 5808 5809 5810 5810 5811 5811 5811 5811 5812 5812 5812 5813 5814 5814 5814 5815 5816 5816 5816 5816 5816 5816 5815 5815 5815 5815 5815 5815 5815 5815 5815 5815 5816 5816 5815 5815 5814 5814 5814 5814 5814 5814 5815 5815 5816 5817 5818 5818 5819 5820 5821 5823 5825 5826 5828 5829 5831 5832 5833 5834 5835 5837 5838 5839
5779 5780 5781 5781 5782 5783 5784 5785 5786 5785 5785 5787 5788 5789 5789 5788 5788 5790 5793 5794 5794 5795 5796 5797 5798 5798 5800 5802 5803 5804 5804 5804 5805 5806 5807 5808 5809 5809 5809 5810 5810 5811 5811 5811 5811 5811 5811 5811 5812 5814 5814 5814 5814 5814 5814 5813 5813 5813 5813 5813 5813 5813 5813 5814 5814 5814 5814 5814 5813 5813 5813 5813 5813 5812 5811 5812 5813 5814 5814 5815 5816 5817 5818 5819 5821 5822 5823 5826 5827 5828 5830 5831 5832 5833 5834 5836 5837
5776 5777 5778 5779 5780 5781 5782 5783 5783 5783 5784 5786 5787 5787 5787 5786 5785 5788 5790 5792 5792 5793 5794 5793 5793 5793 5797 5799 5800 5802 5803 5802 5802 5803 5804 5805 5806 5807 5806 5807 5808 5809 5809 5809 5809 5808 5808 5809 5810 5811 5812 5812 5812 5811 5811 5811 5811 5811 5811 5811 5811 5811 5811 5811 5812 5811 5812 5812 5812 5811 5811 5811 5811 5811 5810 5810 5810 5811 5811 5812 5814 5815 5817 5817 5818 5820 5821 5823 5825 5826 5827 5828 5830 5831 5832 5833 5835
5774 5775 5775 5776 5777 5779 5780 5780 5782 5783 5784 5785 5786 5786 5785 5784 5784 5785 5788 5789 5791 5792 5791 5789 5788 5790 5794 5796 5797 5799 5801 5801 5800 5801 5801 5802 5802 5803 5803 5804 5805 5805 5806 5806 5806 5806 5806 5807 5807 5808 5809 5809 5809 5809 5808 5808 5808 5808 5808 5808 5808 5808 5809 5809 5809 5809 5810 5810 5810 5809 5809 5809 5809 5809 5810 5808 5807 5809 5809 5809 5810 5812 5814 5814 5815 5816 5818 5820 5822 5823 5824 5826 5827 5828 5829 5831 5832
5772 5773 5773 5774 5775 5776 5777 5779 5782 5784 5784 5784 5783 5784 5784 5783 5783 5783 5785 5787 5788 5789 5787 5785 5786 5789 5791 5792 5793 5796 5798 5799 5798 5798 5799 5799 5799 5799 5800 5801 5802 5802 5803 5803 5803 5803 5803 5804 5805 5805 5806 5806 5807 5807 5806 5805 5805 5805 5805 5806 5806 5806 5806 5807 5807 5807 5808 5808 5807 5807 5807 5807 5806 5807 5808 5807 5806 5808 5808 5808 5808 5809 5810 5811 5812 5813 5815 5817 5818 5820 5821 5823 5824 5825 5827 5828 5830
5771 5772 5772 5772 5773 5774 5776 5779 5781 5782 5782 5782 5781 5782 5782 5783 5783 5781 5781 5783 5784 5785 5783 5783 5786 5788 5788 5788 5790 5792 5794 5796 5796 5796 5796 5796 5796 5797 5798 5798 5799 5800 5800 5801 5801 5801 5801 5801 5802 5802 5803 5803 5804 5804 5804 5803 5803 5802 5802 5803 5804 5804 5804 5804 5804 5805 5805 5805 5805 5805 5804 5804 5804 5804 5804 5805 5805 5806 5807 5807 5807 5807 5807 5808 5810 5811 5812 5814 5815 5817 5819 5820 5822 5823 5824 5825 5827
5769 5771 5771 5771 5771 5773 5776 5778 5779 5779 5779 5780 5780 5781 5782 5782 5782 5780 5778 5778 5780 5780 5781 5783 5786 5786 5786 5786 5787 5789 5791 5793 5793 5794 5794 5794 5795 5795 5796 5796 5796 5797 5797 5798 5798 5799 5798 5798 5798 5799 5799 5799 5800 5801 5801 5801 5801 5800 5800 5800 5801 5801 5801 5801 5801 5802 5802 5803 5803 5802 5802 5802 5802 5801 5801 5802 5803 5803 5804 5805 5805 5805 5805 5806 5807 5808 5810 5811 5813 5814 5816 5818 5819 5820 5821 5823 5824
5767 5769 5770 5770 5771 5773 5775 5774 5776 5776 5776 5778 5779 5779 5780 5779 5779 5779 5777 5776 5776 5776 5779 5783 5784 5784 5785 5784 5785 5786 5788 5790 5791 5792 5792 5793 5793 5794 5794 5794 5794 5794 5794 5795 5796 5796 5796 5796 5795 5795 5795 5796 5796 5797 5798 5798 5798 5798 5798 5798 5797 5798 5798 5798 5798 5799 5799 5800 5800 5800 5799 5800 5800 5799 5798 5799 5800 5801 5801 5802 5802 5803 5804 5804 5805 5806 5807 5809 5810 5811 5812 5815 5816 5817 5820 5821 5822
5766 5767 5768 5769 5770 5772 5772 5772 5773 5774 5774 5775 5776 5776 5777 5776 5777 5777 5777 5775 5774 5774 5776 5780 5782 5782 5783 5782 5783 5784 5785 5787 5788 5789 5790 5790 5791 5792 5792 5792 5792 5791 5792 5792 5792 5792 5793 5793 5792 5792 5792 5793 5793 5794 5794 5795 5795 5795 5795 5795 5795 5794 5795 5795 5796 5796 5796 5796 5797 5797 5797 5797 5797 5797 5796 5796 5797 5798 5798 5799 5801 5801 5802 5803 5803 5804 5805 5806 5807 5808 5810 5812 5812 5814 5817 5819 5820
5765 5766 5767 5768 5769 5769 5769 5769 5770 5770 5771 5772 5772 5773 5774 5774 5774 5775 5774 5773 5774 5774 5774 5777 5778 5778 5779 5779 5780 5781 5782 5784 5785 5786 5787 5787 5788 5789 5789 5789 5789 5789 5789 5789 5789 5789 5789 5789 5789 5789 5789 5790 5790 5790 5791 5792 5792 5792 5792 5793 5792 5792 5791 5791 5792 5793 5793 5793 5793 5793 5794 5794 5794 5795 5795 5794 5794 5795 5796 5797 5798 5798 5799 5800 5801 5802 5803 5804 5805 5805 5806 5807 5807 5810 5813 5815 5817
5763 5765 5765 5765 5766 5766 5766 5765 5766 5767 5768 5769 5770 5771 5772 5771 5771 5772 5772 5771 5772 5773 5773 5775 5776 5775 5775 5776 5777 5778 5779 5780 5782 5783 5783 5784 5785 5786 5786 5786 5786 5786 5786 5786 5786 5786 5786 5786 5786 5786 5786 5786 5787 5788 5788 5789 5789 5789 5789 5789 5789 5789 5789 5788 5788 5790 5790 5791 5791 5791 5791 5791 5792 5792 5793 5793 5792 5793 5793 5794 5795 5795 5796 5797 5798 5799 5801 5802 5802 5802 5802 5802 5803 5806 5809 5811 5814
5761 5762 5763 5763 5764 5763 5763 5763 5763 5764 5766 5766 5767 5769 5769 5767 5767 5769 5770 5769 5769 5771 5772 5773 5773 5773 5772 5773 5774 5775 5776 5777 5778 5778 5779 5781 5782 5783 5784 5784 5784 5783 5783 5783 5783 5783 5782 5783 5783 5783 5783 5783 5784 5784 5785 5785 5786 5786 5786 5786 5786 5786 5786 5786 5785 5786 5787 5788 5788 5788 5788 5789 5789 5789 5790 5791 5791 5791 5791 5791 5792 5793 5794 5795 5795 5796 5798 5799 5799 5800 5800 5800 5800 5803 5805 5808 5810
5759 5760 5760 5761 5761 5760 5760 5760 5761 5761 5763 5763 5763 5765 5766 5765 5764 5766 5766 5766 5767 5768 5769 5771 5771 5770 5770 5770 5771 5772 5773 5773 5773 5774 5776 5777 5778 5780 5781 5782 5782 5781 5781 5780 5779 5779 5779 5780 5780 5780 5780 5780 5780 5781 5781 5782 5782 5782 5783 5783 5783 5783 5783 5783 5783 5783 5783 5784 5785 5785 5786 5786 5786 5786 5786 5788 5788 5789 5789 5790 5790 5790 5791 5792 5792 5794 5796 5796 5797 5798 5799 5800 5800 5800 5802 5804 5807
5757 5757 5757 5759 5759 5758 5757 5757 5757 5757 5759 5759 5759 5761 5763 5763 5762 5763 5764 5763 5764 5765 5766 5768 5768 5768 5767 5767 5767 5768 5769 5769 5769 5771 5772 5774 5775 5776 5778 5779 5779 5779 5778 5777 5776 5776 5776 5776 5777 5777 5777 5777 5777 5778 5778 5779 5779 5779 5779 5779 5780 5780 5780 5780 5780 5780 5780 5781 5781 5782 5783 5783 5783 5783 5783 5784 5785 5786 5787 5787 5787 5787 5788 5788 5790 5792 5793 5794 5795 5796 5798 5799 5799 5799 5800 5802 5803
5754 5754 5754 5755 5756 5755 5754 5754 5754 5753 5754 5755 5756 5758 5760 5760 5759 5760 5761 5761 5762 5762 5764 5765 5766 5765 5764 5764 5764 5765 5765 5765 5765 5766 5768 5770 5771 5773 5775 5776 5776 5776 5775 5774 5773 5772 5773 5773 5774 5774 5774 5774 5774 5774 5775 5775 5775 5775 5776 5776 5776 5776 5777 5777 5777 5777 5777 5777 5778 5778 5779 5780 5781 5781 5781 5781 5782 5783 5784 5784 5785 5785 5785 5786 5787 5789 5791 5792 5793 5794 5795 5796 5797 5797 5799 5800 5801
5751 5751 5752 5752 5752 5752 5752 5752 5751 5750 5750 5752 5753 5755 5756 5755 5756 5757 5757 5758 5759 5759 5760 5763 5763 5762 5762 5762 5762 5761 5760 5761 5762 5762 5763 5766 5768 5770 5772 5773 5773 5772 5772 5771 5769 5769 5769 5770 5771 5771 5770 5770 5770 5771 5771 5772 5772 5772 5772 5772 5772 5773 5773 5774 5774 5774 5774 5774 5774 5775 5776 5776 5777 5778 5778 5779 5779 5780 5781 5781 5782 5782 5783 5783 5784 5786 5788 5789 5790 5791 5792 5793 5795 5795 5796 5798 5799
5748 5748 5749 5750 5750 5749 5749 5749 5749 5748 5748 5749 5750 5752 5753 5752 5753 5754 5754 5754 5754 5754 5756 5759 5760 5759 5759 5758 5758 5758 5757 5757 5758 5758 5759 5761 5764 5767 5769 5769 5769 5769 5769 5767 5766 5766 5767 5767 5768 5768 5767 5767 5767 5767 5768 5768 5769 5769 5769 5769 5769 5769 5770 5770 5770 5770 5770 5771 5771 5772 5772 5773 5774 5775 5775 5776 5776 5777 5778 5779 5779 5779 5780 5781 5781 5782 5784 5786 5788 5789 5789 5790 5792 5793 5794 5795 5796
5746 5746 5747 5747 5748 5747 5747 5746 5745 5745 5746 5747 5747 5748 5749 5750 5751 5752 5752 5752 5752 5751 5750 5754 5756 5756 5756 5755 5754 5754 5753 5754 5754 5754 5755 5757 5760 5763 5765 5765 5766 5766 5765 5764 5763 5763 5764 5764 5764 5764 5764 5763 5763 5764 5764 5765 5765 5766 5766 5766 5766 5766 5766 5767 5767 5767 5767 5768 5768 5769 5769 5770 5771 5772 5772 5773 5773 5774 5775 5776 5776 5777 5778 5778 5779 5779 5781 5782 5784 5785 5786 5787 5788 5790 5791 5792 5793
5743 5744 5744 5745 5745 5745 5744 5743 5741 5742 5743 5744 5744 5744 5745 5748 5749 5750 5751 5750 5749 5748 5746 5748 5752 5753 5752 5752 5751 5750 5750 5750 5751 5750 5751 5753 5756 5759 5761 5761 5762 5762 5761 5760 5760 5760 5761 5761 5761 5760 5761 5760 5760 5760 5761 5762 5762 5763 5763 5763 5763 5763 5763 5764 5764 5764 5764 5764 5765 5766 5766 5767 5767 5768 5769 5770 5770 5771 5772 5773 5774 5775 5775 5776 5777 5777 5778 5779 5780 5781 5782 5784 5785 5786 5788 5789 5791
5739 5740 5741 5741 5741 5742 5741 5740 5738 5738 5739 5741 5741 5740 5740 5744 5747 5748 5749 5748 5745 5744 5743 5745 5747 5748 5748 5749 5748 5747 5746 5747 5747 5747 5748 5749 5751 5754 5756 5757 5758 5758 5758 5757 5757 5757 5758 5758 5758 5757 5757 5757 5757 5757 5757 5758 5759 5759 5760 5760 5760 5760 5760 5761 5761 5761 5762 5762 5762 5762 5763 5764 5764 5765 5766 5767 5767 5768 5769 5770 5771 5772 5773 5774 5774 5775 5775 5776 5777 5777 5778 5780 5781 5782 5784 5785 5787
5735 5736 5737 5737 5737 5738 5738 5737 5736 5735 5736 5737 5738 5738 5736 5738 5744 5744 5742 5741 5741 5741 5741 5741 5743 5744 5744 5745 5745 5744 5744 5744 5744 5744 5745 5746 5747 5750 5752 5753 5754 5754 5755 5754 5754 5754 5755 5755 5755 5754 5753 5754 5754 5753 5753 5754 5755 5756 5756 5756 5756 5757 5757 5758 5758 5758 5759 5759 5759 5759 5759 5760 5761 5762 5763 5763 5764 5765 5765 5766 5767 5769 5770 5771 5772 5772 5773 5773 5774 5774 5775 5776 5777 5778 5779 5781 5783
5732 5732 5733 5733 5733 5734 5734 5734 5734 5732 5732 5734 5737 5737 5732 5733 5739 5739 5735 5736 5737 5737 5738 5738 5739 5740 5740 5741 5742 5742 5741 5741 5741 5741 5742 5743 5744 5746 5748 5749 5750 5751 5751 5751 5751 5751 5752 5752 5752 5751 5750 5750 5750 5751 5750 5750 5751 5752 5753 5753 5753 5753 5754 5754 5755 5756 5756 5756 5756 5756 5756 5757 5758 5758 5759 5760 5761 5762 5762 5763 5764 5765 5766 5768 5769 5769 5770 5771 5771 5771 5772 5772 5772 5773 5774 5776 5778
5729 5729 5730 5730 5730 5730 5730 5730 5730 5730 5730 5733 5736 5733 5729 5730 5735 5734 5732 5734 5734 5734 5734 5734 5736 5736 5737 5739 5739 5739 5739 5739 5738 5739 5739 5740 5742 5743 5745 5746 5747 5748 5748 5748 5748 5748 5748 5749 5749 5749 5748 5747 5747 5748 5748 5747 5748 5749 5749 5750 5750 5750 5751 5751 5751 5752 5753 5754 5754 5754 5754 5754 5754 5755 5756 5757 5757 5758 5759 5760 5761 5762 5763 5764 5765 5766 5767 5767 5768 5768 5769 5769 5769 5769 5770 5771 5773
5726 5726 5727 5728 5727 5727 5727 5726 5727 5727 5728 5731 5731 5728 5726 5728 5732 5731 5731 5731 5731 5731 5731 5732 5733 5733 5734 5736 5737 5737 5738 5737 5736 5737 5737 5738 5739 5740 5741 5742 5743 5744 5744 5744 5744 5744 5745 5746 5746 5746 5745 5744 5744 5745 5745 5745 5745 5745 5746 5747 5747 5747 5748 5748 5748 5749 5750 5750 5751 5751 5752 5752 5751 5751 5752 5752 5754 5755 5756 5757 5758 5759 5760 5761 5762 5762 5763 5764 5765 5765 5765 5766 5766 5766 5767 5767 5768
5723 5724 5724 5725 5725 5725 5724 5724 5724 5724 5727 5728 5727 5725 5724 5726 5729 5729 5728 5728 5727 5728 5728 5728 5730 5731 5731 5733 5734 5735 5736 5736 5735 5735 5735 5736 5736 5737 5738 5739 5739 5740 5740 5740 5740 5741 5742 5742 5742 5742 5742 5741 5741 5742 5742 5742 5742 5742 5743 5744 5744 5744 5745 5745 5746 5746 5746 5747 5748 5748 5749 5749 5749 5749 5749 5749 5750 5751 5752 5753 5754 5755 5757 5758 5759 5759 5760 5761 5761 5762 5762 5762 5763 5763 5763 5764 5765
5720 5721 5722 5722 5722 5721 5721 5721 5721 5722 5725 5725 5724 5722 5722 5724 5727 5727 5726 5725 5725 5725 5725 5725 5726 5728 5729 5730 5731 5732 5733 5734 5734 5733 5733 5733 5733 5733 5734 5735 5735 5736 5736 5736 5737 5737 5738 5738 5738 5738 5738 5738 5738 5739 5739 5740 5739 5739 5740 5740 5740 5741 5741 5742 5743 5743 5743 5743 5744 5745 5746 5747 5747 5747 5747 5747 5748 5748 5749 5749 5750 5752 5753 5754 5755 5756 5757 5757 5758 5758 5759 5759 5759 5760 5760 5760 5761
5717 5718 5719 5719 5718 5718 5718 5719 5719 5720 5722 5723 5721 5720 5721 5724 5725 5725 5724 5723 5723 5723 5723 5723 5724 5725 5725 5726 5728 5729 5730 5730 5730 5731 5731 5731 5730 5730 5731 5731 5732 5732 5732 5732 5733 5733 5734 5734 5735 5735 5735 5735 5735 5736 5736 5736 5736 5736 5737 5737 5737 5737 5738 5739 5740 5740 5740 5740 5741 5741 5742 5743 5744 5745 5745 5745 5746 5746 5746 5747 5747 5748 5749 5750 5751 5752 5753 5754 5754 5754 5755 5755 5756 5756 5756 5757 5757
5715 5715 5716 5716 5716 5716 5716 5717 5717 5717 5718 5720 5719 5719 5720 5721 5722 5723 5722 5721 5720 5720 5720 5720 5721 5722 5722 5723 5724 5725 5725 5726 5726 5727 5728 5728 5727 5727 5727 5728 5728 5728 5729 5729 5729 5729 5730 5730 5731 5732 5732 5732 5732 5732 5732 5732 5733 5733 5733 5733 5734 5734 5735 5736 5736 5737 5737 5737 5738 5738 5739 5740 5741 5742 5742 5743 5743 5743 5744 5744 5744 5745 5745 5746 5747 5748 5749 5750 5750 5750 5751 5751 5752 5752 5752 5753 5754
5713 5713 5713 5714 5714 5714 5714 5714 5714 5713 5714 5716 5716 5717 5718 5719 5720 5721 5719 5718 5717 5716 5716 5716 5717 5717 5718 5719 5719 5720 5721 5722 5722 5723 5723 5723 5723 5724 5724 5725 5725 5726 5726 5726 5726 5726 5727 5727 5728 5728 5729 5729 5729 5728 5728 5729 5729 5730 5730 5730 5730 5731 5732 5732 5733 5734 5734 5734 5735 5736 5736 5737 5738 5738 5739 5740 5740 5740 5741 5741 5741 5742 5743 5743 5744 5745 5745 5746 5746 5747 5747 5747 5747 5748 5748 5749 5750
5710 5710 5711 5712 5712 5711 5710 5710 5710 5710 5710 5711 5713 5714 5715 5716 5717 5717 5716 5715 5715 5714 5714 5714 5713 5714 5714 5714 5715 5715 5716 5717 5719 5719 5719 5719 5719 5721 5722 5722 5723 5723 5723 5723 5723 5723 5724 5724 5725 5725 5725 5726 5726 5725 5725 5726 5726 5726 5726 5726 5726 5727 5728 5729 5730 5731 5731 5731 5732 5732 5733 5734 5734 5735 5736 5736 5737 5737 5737 5738 5738 5738 5739 5740 5740 5741 5741 5742 5742 5742 5743 5743 5743 5743 5743 5744 5745
5707 5708 5708 5708 5708 5707 5707 5707 5707 5707 5706 5707 5709 5712 5712 5713 5713 5713 5712 5713 5713 5712 5712 5711 5711 5711 5712 5711 5711 5711 5712 5713 5714 5714 5715 5716 5716 5717 5718 5720 5720 5721 5721 5721 5721 5721 5722 5722 5722 5722 5722 5722 5722 5722 5722 5722 5722 5722 5722 5722 5722 5723 5724 5725 5726 5726 5727 5727 5728 5729 5729 5730 5730 5731 5732 5732 5733 5733 5733 5734 5734 5734 5734 5735 5736 5736 5737 5737 5737 5738 5738 5739 5739 5739 5739 5739 5740
5704 5705 5705 5705 5705 5705 5705 5703 5703 5703 5703 5703 5705 5707 5709 5710 5709 5709 5709 5710 5710 5709 5709 5708 5708 5709 5709 5708 5708 5709 5709 5709 5709 5710 5710 5712 5713 5714 5714 5716 5717 5718 5718 5718 5718 5719 5720 5720 5720 5720 5720 5720 5719 5719 5719 5718 5718 5718 5718 5718 5718 5719 5719 5720 5721 5722 5723 5723 5724 5724 5725 5725 5726 5726 5727 5727 5728 5728 5728 5729 5729 5730 5730 5730 5731 5731 5732 5732 5732 5732 5733 5733 5734 5734 5735 5735 5735
5701 5702 5703 5702 5702 5701 5701 5700 5700 5700 5699 5699 5700 5702 5706 5707 5706 5706 5705 5706 5706 5705 5705 5705 5704 5705 5706 5705 5706 5706 5706 5705 5705 5705 5706 5707 5708 5709 5710 5711 5711 5713 5714 5714 5715 5716 5716 5717 5717 5717 5717 5717 5717 5717 5716 5716 5715 5715 5715 5714 5714 5715 5715 5716 5717 5717 5718 5718 5719 5720 5720 5721 5721 5721 5722 5722 5722 5723 5723 5724 5724 5725 5725 5725 5726 5726 5726 5726 5727 5727 5727 5728 5729 5729 5729 5730 5730
5699 5699 5699 5699 5698 5697 5696 5696 5696 5696 5696 5696 5696 5697 5701 5703 5703 5703 5702 5701 5702 5702 5701 5701 5701 5701 5702 5703 5703 5703 5703 5703 5702 5702 5702 5703 5703 5704 5705 5706 5707 5708 5709 5710 5710 5711 5712 5712 5712 5713 5713 5714 5715 5715 5714 5714 5713 5712 5712 5711 5711 5711 5712 5712 5712 5713 5713 5714 5714 5715 5715 5716 5716 5716 5717 5717 5717 5718 5718 5718 5719 5719 5719 5720 5720 5720 5720 5721 5721 5721 5722 5722 5723 5724 5724 5724 5724
5696 5695 5695 5694 5694 5693 5692 5692 5692 5692 5692 5693 5692 5692 5696 5699 5700 5700 5698 5696 5696 5697 5697 5697 5697 5697 5698 5699 5699 5700 5700 5700 5699 5699 5699 5699 5699 5699 5700 5701 5702 5703 5704 5704 5705 5707 5707 5707 5707 5708 5709 5709 5710 5711 5711 5711 5710 5709 5709 5708 5707 5707 5708 5708 5708 5708 5708 5709 5709 5710 5710 5711 5711 5711 5712 5712 5712 5713 5713 5713 5713 5713 5714 5714 5714 5714 5714 5714 5715 5715 5715 5716 5716 5717 5717 5718 5718